Location: General Nathan Twining Observatory
(34.5931°N, 106.8201°W)
Time: 18:52:22
(UTC-06:00)

Daily predictions for brighter satellites

Satellite Brightness Start Highest point End
(mag) Time Altitude Azimuth Time Altitude Azimuth Time Altitude Azimuth
Cosmos 1302 Rocket 4.1 20:04:47 10° S 20:09:50 54° ESE 20:14:53 10° NNE
Cosmos 1315 Rocket 4.0 20:09:08 10° NNE 20:12:33 26° ENE 20:15:55 10° SE
Meteor 2-3 Rocket 3.8 20:09:18 10° N 20:15:01 69° E 20:20:44 10° SSE
OTV 4 0.8 20:14:31 10° W 20:17:19 52° SSW 20:20:07 10° SE
Cosmos 1980 Rocket 2.3 20:12:13 10° SSW 20:17:53 86° WNW 20:23:37 10° NNE
H-2A R/B (2) 4.3 20:17:45 10° SW 20:21:14 21° S 20:29:51 10° SE
CZ-2D R/B 3.6 20:20:09 10° SSE 20:23:52 45° ENE 20:27:36 10° N
SEDSat Delta rocket 4.1 20:20:10 10° SW 20:24:58 41° SSE 20:30:26 10° E
Cosmos 1825 4.0 20:23:18 10° NE 20:25:29 15° ENE 20:27:16 11° ESE
Cosmos 2227 Rocket 4.2 20:24:04 10° NW 20:28:49 28° WSW 20:33:33 10° SSW
USA 234 4.3 20:23:25 10° E 20:29:07 33° NE 20:34:50 10° NNW
GPS 2-04 Rocket1 3.9 20:29:52 10° W 20:33:00 29° SSW 20:36:03 11° SE
ATLAS CENTAUR R/B 2.1 20:31:04 10° NW 20:33:48 73° SW 20:40:42 10° SSE
SL-16 R/B 2.6 20:29:14 10° S 20:34:31 42° ESE 20:39:49 10° NE
USA 186 1.9 20:34:07 13° SE 20:36:09 37° ENE 20:38:47 10° N
Cosmos 1707 Rocket 3.5 20:35:04 10° S 20:39:31 83° E 20:43:58 10° N
Nadezhda 4 Rocket 4.1 20:34:00 10° N 20:40:17 84° W 20:46:36 10° S
Helios 1B rocket 2.6 20:38:43 10° NNE 20:42:41 46° E 20:46:37 10° S
Lacrosse 4 Rocket 3.0 20:39:44 10° N 20:43:03 21° ENE 20:45:09 15° E
ATLAS 5 CENTAUR R/B 4.4 20:40:45 10° N 20:43:50 14° NE 20:47:00 10° ENE
ERBS 3.9 20:41:29 10° NNW 20:44:21 23° NE 20:46:04 16° E
SAR-Lupe-4 4.3 20:42:20 17° SE 20:44:39 35° ENE 20:47:56 10° N
Cosmos 1634 Rocket 4.0 20:38:37 10° S 20:44:49 68° E 20:51:06 10° NNE
Intercosmos 25 Rocket 3.6 20:43:45 14° SSE 20:46:01 32° E 20:49:10 10° NNE
Cosmos 1939 Rocket 4.0 20:44:21 18° ESE 20:46:25 27° ENE 20:49:49 10° NNE
ALOS 3.8 20:42:32 10° SSW 20:46:50 37° W 20:51:10 10° NNW
Milstar 3 3.2 20:39:49 10° W 20:48:15 54° S 20:53:09 18° ESE
Cosmos 1733 Rocket 4.3 20:46:09 10° NNE 20:49:47 24° ENE 20:51:22 20° ESE
Cosmos 1092 Rocket 4.0 20:43:45 10° N 20:50:08 82° E 20:56:28 10° S
Cosmos 1862 Rocket 4.4 20:50:04 17° SE 20:52:44 30° E 20:56:38 10° NNE
Cosmos 1486 Rocket 3.9 20:49:35 10° NNW 20:54:50 83° ENE 20:59:43 12° SSE
Cosmos 1655 Rocket 4.5 20:50:21 10° N 20:56:21 41° E 21:00:35 18° SE
Resurs 1-3 4.1 20:53:04 10° S 20:57:23 62° WSW 21:01:45 10° NNW
Gblst 52 Del rocket 4.3 20:53:47 10° NW 20:59:32 68° SW 21:03:26 19° SSE
Cosmos 1408 3.0 20:57:10 10° N 21:00:41 41° E 21:01:57 30° SE
Cosmos 1869 Rocket 4.1 20:56:42 10° NNW 21:01:07 60° W 21:05:30 10° S
SAR-Lupe-1 4.2 21:00:29 27° SE 21:02:06 51° ENE 21:05:35 10° N
Cosmos 1992 Rocket 4.1 20:57:20 10° S 21:02:22 51° ESE 21:07:26 10° NNE
Cosmos 2227 4.2 21:01:03 10° NNW 21:06:49 89° WSW 21:11:15 17° SSE
USA 229 DEB 4.4 21:01:56 10° SSE 21:07:30 28° ESE 21:13:08 10° NE
USA 229 4.4 21:02:03 10° SSE 21:07:36 27° ESE 21:13:12 10° NE
Atlas Centaur 2 3.2 21:02:46 10° SW 21:09:23 46° SSE 21:14:12 23° E
Cosmos 1455 4.4 21:07:08 10° SW 21:10:24 27° W 21:13:40 10° NNW
Cosmos 2242 Rocket 3.5 21:06:53 10° S 21:11:25 88° E 21:15:55 10° N
Helios 1A 3.1 21:13:12 19° S 21:16:14 78° WSW 21:20:30 10° NNW
Cosmos 1627 Rocket 4.5 21:18:09 10° N 21:24:22 82° W 21:29:47 14° S
Cosmos 2279 Rocket 3.9 21:19:44 10° S 21:25:59 85° E 21:32:15 10° N
Cosmos 1503 Rocket 3.9 21:20:58 10° NNW 21:26:14 81° ENE 21:28:33 34° SSE
CZ-4B DEB 2.9 21:26:45 56° SW 21:27:09 65° W 21:30:10 10° NNW
DELTA 2 R/B (1) 4.0 21:22:52 10° WNW 21:28:19 51° SSW 21:30:21 34° SSE
Resurs 01 Rocket 3.9 21:25:17 10° SSW 21:28:48 23° W 21:32:20 10° NW
Cosmos 1354 Rocket 3.9 21:24:57 10° NNW 21:30:16 89° E 21:32:34 35° SSE
YAOGAN 6 2.8 21:31:23 52° ENE 21:31:23 52° ENE 21:34:43 10° N
SJ-11-01 4.3 21:30:00 29° S 21:32:21 79° WSW 21:37:02 10° NNW
OAO 3 Rocket 3.2 21:27:53 10° W 21:32:49 84° N 21:34:28 43° E
H-2A R/B 3.9 21:33:27 15° ENE 21:33:27 15° ENE 21:35:46 10° NNE
SPOT 5 3.8 21:43:25 32° ENE 21:43:25 32° ENE 21:47:18 10° N
H-2A R/B 4.3 13:46:39 10° SSW 21:45:45 70° S 21:51:40 33° ESE
Cosmos 1428 Rocket 4.4 21:40:31 10° N 21:46:38 89° W 21:49:26 35° S
Cosmos 968 Rocket 4.3 21:42:12 10° N 21:46:52 35° ENE 21:46:52 35° ENE
Cosmos 1933 3.8 21:47:17 35° SW 21:48:45 58° W 21:52:44 10° N
COSMOS 2428 4.4 21:52:08 18° ENE 21:52:08 18° ENE 21:53:54 10° NE
Meteor 2-10 Rocket 3.6 21:46:40 36° S 21:49:11 77° E 21:55:00 10° NNE
Envisat 3.8 21:45:59 20° SSW 21:49:11 46° W 21:54:04 10° NNW
Cosmos 2263 Rocket 2.1 21:43:40 10° NNW 21:49:13 67° ENE 21:50:08 57° ESE
Cosmos 2322 Rocket 3.5 21:45:30 10° SW 21:50:42 39° WNW 21:55:58 10° N
Sich 1 Rocket 4.0 21:50:22 10° N 21:54:01 49° NE 21:54:01 49° NE
Cosmos 2360 Rocket 2.1 21:57:15 23° SSW 22:00:53 88° WNW 22:06:35 10° NNE
Cosmos 1825 4.1 21:57:51 10° NNW 22:01:04 27° W 22:02:12 23° WSW
Cosmos 1908 Rocket 4.1 22:02:40 10° N 22:06:00 52° N 22:06:00 52° N
USA 245 4.3 22:08:12 63° E 22:08:18 63° ENE 22:13:37 10° N
Cosmos 2322 3.6 22:07:11 47° SSW 22:08:56 89° WNW 22:14:40 10° NNE
NOAA 11 4.0 22:09:52 79° SE 22:10:11 85° ENE 22:15:42 10° NNW
SEDSat Delta rocket 3.7 22:05:34 10° WSW 22:10:43 63° SSW 22:10:43 63° SSW
USA 234 3.3 22:10:14 53° S 22:11:45 69° SW 22:18:17 10° NW
SL-16 R/B 4.4 22:14:14 10° WSW 22:18:44 24° WNW 22:23:15 10° N
SPOT 1/Viking Rocket 4.1 22:21:00 47° NNE 22:21:00 47° NNE 22:25:04 10° N
Lacrosse 4 Rocket 3.0 22:17:55 10° NW 22:21:30 31° WSW 22:21:30 31° WSW
ERS-1 Rocket 3.7 22:22:09 45° WSW 22:22:38 47° W 22:27:28 10° NNW
MetOp-B 4.2 22:23:30 74° W 22:23:30 74° W 22:28:48 10° NNW
ATLAS 5 CENTAUR R/B 2.4 22:23:18 10° NNW 22:29:19 73° NE 22:29:19 73° NE
ARGOS 3.4 22:34:29 67° NW 22:34:29 67° NW 22:39:11 10° NNW
SeaSat 1 3.1 22:36:49 52° NNW 22:36:49 52° NNW 22:40:33 10° NNW
Cosmos 2278 Rocket 4.3 22:39:44 10° NNE 22:41:58 15° NE 22:41:58 15° NE
Terra 3.7 22:48:57 23° NNE 22:48:57 23° NNE 22:50:56 10° N
Cosmos 1844 Rocket 3.9 22:47:12 10° N 22:50:44 34° NNE 22:50:44 34° NNE
USA 229 DEB 4.4 22:51:31 10° SW 22:58:04 49° NW 23:04:47 10° NNE
USA 229 4.4 22:51:35 10° SW 22:58:09 50° NW 23:04:52 10° NNE
Atlas Centaur 2 3.3 22:51:11 10° WSW 22:56:51 51° SW 22:56:51 51° SW
Cosmos 2219 Rocket 4.0 23:10:17 22° NNE 23:10:17 22° NNE 23:12:13 10° NNE
H-2A R/B 3.6 23:14:04 31° NW 23:14:04 31° NW 23:16:48 10° NNW
CZ-4C R/B 4.1 23:11:13 10° NNW 23:17:19 31° NE 23:17:19 31° NE
COSMOS 2428 4.3 23:34:03 31° NW 23:34:03 31° NW 23:38:16 10° N
